[[{"header":{"parameterUnit":"m.s-1","parameterCategory":1,"la1":30.2991,"la2":30.254,"lo1":-89.0895,"lo2":-89.0444,"dy":0.0017,"dx":0.0017,"nx":28,"ny":28,"refTime":"2023-10-02T03:00:00:Z","depth":0,"parameterNumber":2,"parameterNumberName":"U-component_of_WINDS"},"data":[0,0,0,0,0,0,0,0,0,0,0,0,0,0,0,0,0,0,0,0,0,0,0,0,0,0,0,0,0,0,0,0,0,0,0,0,0,0,0,0,0,0,0,0,0,0,0,0,0,0,0,0,0,0,0,0,0,0,-4.0605,-4.0607,0,-4.0804,-4.0806,-4.0808,-4.0754,-4.075,-4.0746,-4.0742,-4.0949,-4.0958,-4.0967,0,0,0,0,0,0,0,0,0,0,0,0,0,-4.0182,-4.019,-4.0604,-4.0607,-4.0609,-4.0803,-4.0806,-4.0809,-4.0755,-4.075,-4.0745,-4.074,-4.0946,-4.0957,-4.0968,0,0,0,0,0,0,0,0,0,0,0,0,0,-4.0372,-4.0192,-4.0604,-4.0606,-4.0608,-4.0803,-4.0806,-4.0809,-4.0756,-4.075,-4.0744,-4.0738,-4.0942,-4.0956,-4.097,-4.1176,0,0,-4.1012,-4.1018,0,0,0,0,0,0,0,0,-4.0361,-4.0387,-4.0603,-4.0606,-4.0609,-4.0748,-4.0733,-4.0932,-4.0757,-4.07,-4.0742,-4.0735,-4.0887,-4.0905,-4.0956,-4.1185,-4.1194,-4.1013,-4.1022,-4.1027,-4.1031,0,0,0,0,0,0,0,-4.0348,-4.0378,-4.0683,-4.0606,-4.061,-4.0598,-4.0618,-4.077,-4.0825,-4.0704,-4.0701,-4.0725,-4.0888,-4.0943,-4.096,-4.1197,-4.1013,-4.1025,-4.1034,-4.1039,-4.1609,-4.1616,0,0,0,0,0,0,-4.0332,-4.0368,-4.0677,-4.0689,-4.0467,-4.061,-4.0633,-4.0709,-4.0823,-4.0835,-4.073,-4.0722,-4.0922,-4.0944,-4.0967,-4.1218,-4.1027,-4.104,-4.1048,-4.1602,-4.1611,-4.1618,0,0,0,0,0,0,-4.0323,-4.036,-4.0669,-4.0528,-4.0566,-4.0624,-4.071,-4.0716,-4.0771,-4.0842,-4.0852,-4.0776,-4.0918,-4.0948,-4.1125,-4.1225,-4.1047,-4.1059,-4.1594,-4.1605,-4.1614,-4.1721,0,0,0,0,0,0,-4.0311,-4.0357,-4.0435,-4.053,-4.0574,-4.0822,-4.0716,-4.0725,-4.0795,-4.0786,-4.0888,-4.0899,-4.0916,-4.1104,-4.1139,-4.1241,-4.107,-4.1586,-4.1599,-4.1611,-4.1709,-4.1733,-4.1755,0,0,0,0,0,-4.0296,-4.0457,-4.0439,-4.0477,-4.0672,-4.0828,-4.0853,-4.0868,-4.0803,-4.0883,-4.0929,-4.0896,-4.1208,-4.1123,-4.1161,-4.1269,-4.1579,-4.1595,-4.161,-4.1698,-4.1729,-4.1754,0,0,0,0,0,0,-4.0373,-4.0469,-4.0451,-4.0646,-4.0729,-4.0818,-4.0919,-4.0899,-4.1002,-4.099,-4.1005,-4.1028,-4.121,-4.1257,-4.116,-4.1476,-4.1385,-4.1408,-4.1439,-4.1468,-4.149,-4.1476,-4.1082,0,0,0,0,0,-4.0412,-4.0529,-4.0608,-4.0773,-4.0816,-4.0861,-4.0929,-4.0933,-4.102,-4.1055,-4.1114,-4.12,-4.1318,-4.1395,-4.1507,-4.1715,-4.1738,-4.1808,-4.1831,-4.1849,-4.187,-4.1987,-4.202,-4.1668,-4.1668,-4.1668,0,0,-4.0495,-4.0563,-4.0636,-4.0791,-4.0855,-4.0978,-4.089,-4.1023,-4.1115,-4.1075,-4.1246,-4.1293,-4.1391,-4.1585,-4.1673,-4.1629,-4.1972,-4.1869,-4.1883,-4.1894,-4.2006,-4.2039,-4.2069,-4.1679,-4.1677,-4.1675,0,0,-4.071,-4.0771,-4.0917,-4.0984,-4.1083,-4.1112,-4.1148,-4.1241,-4.127,-4.1441,-4.1415,-4.1525,-4.1727,-4.1798,-4.1861,-4.2106,-4.208,-4.2142,-4.2262,-4.2376,-4.2403,-4.2428,-4.2518,-4.255,-4.2162,-4.2162,-4.2162,0,-4.0801,-4.0984,-4.0995,-4.1132,-4.1202,-4.1171,-4.132,-4.1384,-4.1516,-4.1565,-4.1514,-4.1769,-4.1832,-4.2044,-4.2104,-4.2155,-4.2197,-4.2131,-4.2398,-4.2423,-4.2446,-4.2532,-4.2566,-4.2169,-4.2168,-4.2168,-4.2167,0,-4.1092,-4.122,-4.1326,-4.1453,-4.1535,-4.1677,-4.1712,-4.1794,-4.1791,-4.1826,-4.2003,-4.2078,-4.2207,-4.2257,-4.2256,-4.247,-4.244,-4.2394,-4.2303,-4.2487,-4.2568,-4.2601,-4.2179,-4.2177,-4.2175,-4.2173,0,0,-4.136,-4.1493,-4.1532,-4.1591,-4.1699,-4.1799,-4.194,-4.2065,-4.2136,-4.2228,-4.2349,-4.2522,-4.248,-4.2552,-4.2558,-4.2658,-4.285,-4.26,-4.2602,-4.2646,-4.3094,-4.313,-4.3168,-4.2833,-4.284,-4.2845,-4.3087,0,-4.1586,-4.1835,-4.185,-4.2076,-4.2196,-4.2169,-4.2293,-4.2374,-4.2411,-4.2519,-4.256,-4.2683,-4.2617,-4.2661,-4.2758,-4.2806,-4.2941,-4.2788,-4.2949,-4.2954,-4.2927,-4.3209,-4.3247,-4.3472,-4.3118,-4.3124,-4.3128,0,-4.1882,-4.1984,-4.2222,-4.2315,-4.2366,-4.2477,-4.2594,-4.2697,-4.2789,-4.2809,-4.289,-4.2884,-4.3032,-4.2934,-4.314,-4.3036,-4.3103,-4.3137,-4.3146,-4.3163,-4.3053,-4.3237,-4.3544,-4.3579,-4.3177,-4.3173,-4.317,0,-4.2057,-4.2253,-4.2421,-4.2472,-4.2585,-4.2664,-4.2715,-4.2801,-4.2876,-4.2978,-4.3028,-4.3146,-4.3212,-4.3305,-4.3332,-4.3258,-4.3538,-4.3442,-4.3562,-4.3561,-4.3623,-4.3619,-4.3948,-4.3662,-4.3662,-4.3661,-4.366,0,-4.2309,-4.2456,-4.2502,-4.2606,-4.2771,-4.2788,-4.2951,-4.2997,-4.3074,-4.3188,-4.3172,-4.328,-4.3308,-4.3421,-4.3443,-4.3612,-4.3641,-4.3663,-4.3668,-4.3666,-4.3664,-4.3711,-4.3697,-4.367,-4.3668,-4.3666,-4.3665,0,-4.2532,-4.2568,-4.2751,-4.2843,-4.2869,-4.2987,-4.3067,-4.3168,-4.3203,-4.3348,-4.3383,-4.3439,-4.3572,-4.3607,-4.3766,-4.3781,-4.3981,-4.397,-4.395,-4.395,-4.4068,-4.4058,-4.4441,-4.4493,-4.4171,-4.4174,-4.4177,0,-4.2691,-4.2804,-4.2909,-4.2984,-4.3038,-4.3158,-4.3235,-4.3257,-4.3338,-4.3453,-4.3541,-4.3671,-4.3777,-4.3992,-4.4048,-4.417,-4.4163,-4.4289,-4.4182,-4.4178,-4.4169,-4.4162,-4.4175,-4.431,-4.4313,-4.4316,-4.4318,0,-4.2971,-4.2984,-4.3094,-4.3213,-4.3304,-4.3399,-4.3489,-4.3551,-4.3586,-4.3678,-4.3814,-4.3896,-4.4059,-4.4191,-4.4315,-4.4369,-4.4352,-4.4352,-4.4386,-4.4387,-4.4372,-4.4384,-4.4008,-4.4343,-4.4341,-4.4339,-4.4338,-4.4337,-4.3169,-4.3269,-4.3359,-4.3483,-4.3554,-4.3639,-4.3739,-4.3787,-4.39,-4.4034,-4.4041,-4.4189,-4.4281,-4.4446,-4.4507,-4.4625,-4.4587,-4.4637,-4.465,-4.4662,-4.4674,-4.4351,-4.4647,-4.4647,-4.4646,-4.4645,-4.4645,0,-4.3449,-4.3506,-4.3621,-4.3748,-4.3847,-4.382,-4.3919,-4.4004,-4.4134,-4.4221,-4.4326,-4.4484,-4.4612,-4.4678,-4.4806,-4.4888,-4.4883,-4.4921,-4.4916,-4.493,-4.4698,-4.4657,-4.4923,-4.4923,-4.4923,-4.4923,-4.4922,-4.4922,-4.3607,-4.3776,-4.38,-4.4005,-4.4061,-4.4205,-4.4265,-4.4345,-4.4414,-4.4591,-4.4697,-4.4739,-4.4819,-4.4952,-4.507,-4.5086,-4.5135,-4.5178,-4.5191,-4.4974,-4.4945,-4.4918,-4.488,-4.5188,-4.5188,-4.5412,-4.5414,-4.5416]},{"header":{"parameterUnit":"m.s-1","parameterCategory":1,"la1":30.2991,"la2":30.254,"lo1":-89.0895,"lo2":-89.0444,"dy":0.0017,"dx":0.0017,"nx":28,"ny":28,"refTime":"2023-10-02T03:00:00:Z","depth":0,"parameterNumber":3,"parameterNumberName":"V-component_of_WINDS"},"data":[0,0,0,0,0,0,0,0,0,0,0,0,0,0,0,0,0,0,0,0,0,0,0,0,0,0,0,0,0,0,0,0,0,0,0,0,0,0,0,0,0,0,0,0,0,0,0,0,0,0,0,0,0,0,0,0,0,0,-1.788,-1.7879,0,-1.782,-1.7819,-1.7818,-1.7762,-1.7761,-1.776,-1.776,-1.7698,-1.7697,-1.7696,0,0,0,0,0,0,0,0,0,0,0,0,0,-1.7944,-1.7944,-1.788,-1.7879,-1.7878,-1.782,-1.7819,-1.7818,-1.7762,-1.7761,-1.776,-1.7759,-1.7698,-1.7697,-1.7696,0,0,0,0,0,0,0,0,0,0,0,0,0,-1.7904,-1.7943,-1.788,-1.7843,-1.7839,-1.782,-1.7819,-1.7818,-1.7762,-1.7761,-1.776,-1.7759,-1.7699,-1.7697,-1.7696,-1.7708,0,0,-1.7691,-1.769,0,0,0,0,0,0,0,0,-1.7906,-1.7901,-1.7849,-1.7846,-1.7841,-1.7797,-1.7819,-1.7781,-1.7762,-1.7791,-1.776,-1.7758,-1.7732,-1.7727,-1.7718,-1.7705,-1.7702,-1.7691,-1.769,-1.7689,-1.7689,0,0,0,0,0,0,0,-1.7909,-1.7903,-1.7856,-1.7849,-1.7844,-1.7829,-1.7822,-1.7811,-1.7768,-1.7789,-1.7785,-1.7778,-1.7729,-1.772,-1.7717,-1.7701,-1.7691,-1.769,-1.7689,-1.7688,-1.7691,-1.7692,0,0,0,0,0,0,-1.7917,-1.7906,-1.7858,-1.7854,-1.7872,-1.7829,-1.7821,-1.7812,-1.7768,-1.776,-1.7779,-1.7776,-1.7723,-1.7718,-1.7714,-1.7723,-1.7689,-1.7688,-1.7687,-1.769,-1.7692,-1.7693,0,0,0,0,0,0,-1.7919,-1.7914,-1.786,-1.7879,-1.7871,-1.7829,-1.782,-1.7812,-1.7802,-1.7761,-1.7753,-1.7778,-1.7722,-1.7716,-1.7709,-1.7721,-1.7687,-1.7686,-1.7689,-1.7691,-1.7692,-1.7743,0,0,0,0,0,0,-1.7921,-1.7915,-1.7919,-1.788,-1.787,-1.7857,-1.782,-1.7811,-1.78,-1.7795,-1.7757,-1.775,-1.7721,-1.7712,-1.7708,-1.7718,-1.7685,-1.7688,-1.769,-1.7692,-1.7741,-1.7747,-1.7752,0,0,0,0,0,-1.7924,-1.7937,-1.792,-1.7914,-1.7875,-1.7858,-1.7852,-1.7818,-1.7801,-1.7805,-1.7778,-1.7751,-1.772,-1.7711,-1.7706,-1.7717,-1.7687,-1.7689,-1.7691,-1.7738,-1.7745,-1.7752,0,0,0,0,0,0,-1.7979,-1.7931,-1.7912,-1.7912,-1.789,-1.7848,-1.7852,-1.7828,-1.7809,-1.7805,-1.7764,-1.7756,-1.7753,-1.7734,-1.7725,-1.7724,-1.77,-1.7701,-1.7737,-1.7743,-1.7749,-1.7753,-1.7684,0,0,0,0,0,-1.7991,-1.7982,-1.794,-1.7944,-1.7934,-1.7895,-1.7886,-1.7862,-1.7837,-1.7827,-1.7799,-1.7775,-1.776,-1.7751,-1.7734,-1.7737,-1.7727,-1.7742,-1.7747,-1.7752,-1.7754,-1.7752,-1.7757,-1.77,-1.77,-1.77,0,0,-1.8017,-1.7989,-1.7986,-1.7955,-1.7934,-1.7924,-1.7887,-1.7879,-1.7871,-1.7825,-1.7816,-1.7795,-1.7766,-1.7763,-1.7761,-1.7747,-1.7767,-1.7755,-1.7759,-1.7758,-1.7755,-1.776,-1.7765,-1.7701,-1.7701,-1.7701,0,0,-1.8058,-1.8036,-1.8037,-1.8017,-1.7986,-1.796,-1.796,-1.7922,-1.7906,-1.7896,-1.7862,-1.7851,-1.7826,-1.7805,-1.7792,-1.7823,-1.7797,-1.7819,-1.7848,-1.7846,-1.7851,-1.7855,-1.7864,-1.7868,-1.7821,-1.7821,-1.7821,0,-1.8093,-1.8077,-1.804,-1.8033,-1.802,-1.7978,-1.7977,-1.7959,-1.7925,-1.7916,-1.7902,-1.7868,-1.7845,-1.7836,-1.7844,-1.7835,-1.7832,-1.7823,-1.7853,-1.7857,-1.786,-1.7868,-1.7872,-1.7823,-1.7823,-1.7823,-1.7823,0,-1.8121,-1.811,-1.8114,-1.8081,-1.8068,-1.8065,-1.8027,-1.8018,-1.7994,-1.7969,-1.7959,-1.793,-1.7906,-1.7902,-1.788,-1.789,-1.7882,-1.7861,-1.7835,-1.7869,-1.7876,-1.7879,-1.7827,-1.7826,-1.7826,-1.7825,0,0,-1.8196,-1.8142,-1.8144,-1.8127,-1.8089,-1.808,-1.8074,-1.805,-1.8043,-1.802,-1.8013,-1.7991,-1.7971,-1.7955,-1.793,-1.7929,-1.7953,-1.7907,-1.7906,-1.7916,-1.796,-1.7976,-1.7981,-1.7936,-1.7936,-1.7937,-1.7962,0,-1.823,-1.8216,-1.8182,-1.8179,-1.8167,-1.8126,-1.812,-1.8096,-1.8072,-1.8058,-1.8032,-1.8017,-1.7992,-1.7982,-1.7979,-1.7951,-1.7961,-1.7949,-1.7928,-1.7927,-1.7936,-1.7985,-1.8001,-1.8027,-1.7965,-1.7966,-1.7966,0,-1.8267,-1.8246,-1.8242,-1.8203,-1.8197,-1.8192,-1.8167,-1.8154,-1.8125,-1.8108,-1.809,-1.8061,-1.805,-1.8027,-1.8011,-1.8003,-1.7993,-1.7977,-1.7977,-1.7974,-1.7948,-1.7981,-1.8035,-1.8038,-1.7971,-1.797,-1.797,0,-1.8321,-1.8292,-1.8284,-1.8272,-1.8227,-1.8224,-1.8205,-1.8175,-1.8162,-1.8139,-1.813,-1.8107,-1.8094,-1.8077,-1.8042,-1.8028,-1.8029,-1.8004,-1.8014,-1.8014,-1.8016,-1.8016,-1.8067,-1.801,-1.801,-1.801,-1.801,0,-1.8362,-1.836,-1.8308,-1.8303,-1.83,-1.826,-1.8257,-1.8234,-1.8207,-1.8197,-1.816,-1.8151,-1.8106,-1.8091,-1.8064,-1.8054,-1.8049,-1.8034,-1.8026,-1.8036,-1.8038,-1.8028,-1.8025,-1.8011,-1.8011,-1.8011,-1.8011,0,-1.8421,-1.8386,-1.8375,-1.8333,-1.8322,-1.8321,-1.8284,-1.8277,-1.8251,-1.8238,-1.8233,-1.8191,-1.8171,-1.8134,-1.8105,-1.8086,-1.8082,-1.807,-1.8092,-1.8087,-1.8099,-1.8098,-1.8145,-1.8149,-1.8091,-1.8092,-1.8092,0,-1.8449,-1.8447,-1.8403,-1.8394,-1.8376,-1.8361,-1.8347,-1.8308,-1.8295,-1.826,-1.8258,-1.8235,-1.8215,-1.8186,-1.8152,-1.8129,-1.8115,-1.8133,-1.8111,-1.8121,-1.8114,-1.8114,-1.8113,-1.8138,-1.8139,-1.814,-1.814,0,-1.8502,-1.8484,-1.8466,-1.8442,-1.8427,-1.8406,-1.8383,-1.8377,-1.8331,-1.8319,-1.8298,-1.8282,-1.8251,-1.8229,-1.82,-1.818,-1.8152,-1.8147,-1.8148,-1.8158,-1.8171,-1.8163,-1.8105,-1.8146,-1.8146,-1.8145,-1.8145,-1.8145,-1.8546,-1.8541,-1.8509,-1.849,-1.8468,-1.8447,-1.8438,-1.841,-1.8392,-1.8364,-1.8341,-1.8322,-1.8291,-1.8249,-1.823,-1.8214,-1.8201,-1.8203,-1.8203,-1.8204,-1.8207,-1.8174,-1.8209,-1.8208,-1.8208,-1.8208,-1.8208,0,-1.8595,-1.8573,-1.8555,-1.8524,-1.8508,-1.8483,-1.8456,-1.8444,-1.8428,-1.8401,-1.8382,-1.8357,-1.8335,-1.8299,-1.8273,-1.8267,-1.8254,-1.8262,-1.8261,-1.8257,-1.8221,-1.8222,-1.8273,-1.8273,-1.8273,-1.8273,-1.8273,-1.8273,-1.862,-1.861,-1.8588,-1.8567,-1.8543,-1.8524,-1.8511,-1.849,-1.8468,-1.8443,-1.8424,-1.84,-1.8369,-1.8341,-1.8319,-1.8308,-1.83,-1.8312,-1.8298,-1.8265,-1.8259,-1.8254,-1.8254,-1.8311,-1.8311,-1.8335,-1.8335,-1.8335]}]]